Tracking 18843 objects as of 21-November-2017
HD Live streaming from Space Station
objects crossing your sky now

COSMOS 2198

Track COSMOS 2198 now!
10-day predictions
COSMOS 2198 is classified as:


NORAD ID: 22035
Int'l Code: 1992-042B
Perigee: 1,415.1 km
Apogee: 1,423.7 km
Inclination: 82.6 °
Period: 114.1 minutes
Semi major axis: 7790 km
RCS: 1.1839 m2 (large)
Launch date: July 13, 1992
Source: Commonwealth of Independent States (former USSR) (CIS)
Launch site: PLESETSK MISSILE AND SPACE COMPLEX (PKMTR)
aabbcc
Your satellite tracking list
Your tracking list is empty




NASA's NSSDC Master Catalog

Two Line Element Set (TLE):
1 22035U 92042B   17324.41566644 +.00000008 +00000-0 -13871-4 0  9995
2 22035 082.5973 088.2670 0005540 205.5408 154.5411 12.62595131168312
Source of the keplerian elements: AFSPC